| time (UTC) | temp F | wind direction | speed MPH | gust MPH | rain 1hr in | rain 24hr in | rain mn in | humidity % | barometer mb |
| 20260510064958 | 54 | 299 | 1.0 | 5.0 | 0.00 | 0.36 | 0.00 | 96 | 1010.4 |
| 20260510064500 | 54 | 299 | 1.0 | 5.0 | 0.00 | 0.36 | 0.00 | 96 | 1010.4 |
| 20260510063958 | 54 | 328 | 1.0 | 5.0 | 0.00 | 0.36 | 0.00 | 96 | 1010.3 |
| 20260510063500 | 54 | 295 | 1.0 | 5.0 | 0.00 | 0.36 | 0.00 | 96 | 1010.4 |
| 20260510062958 | 53 | 74 | 0.0 | 3.0 | 0.00 | 0.36 | 0.00 | 96 | 1010.5 |
| 20260510062458 | 53 | 136 | 0.0 | 3.0 | 0.00 | 0.36 | 0.00 | 96 | 1010.5 |
| 20260510062005 | 53 | 35 | 0.0 | 1.0 | 0.00 | 0.36 | 0.00 | 96 | 1010.4 |
| 20260510061959 | 53 | 35 | 0.0 | 1.0 | 0.00 | 0.36 | 0.00 | 96 | 1010.4 |
| 20260510060959 | 53 | 35 | 0.0 | 1.0 | 0.00 | 0.36 | 0.00 | 96 | 1010.3 |
| 20260510060458 | 53 | 35 | 0.0 | 1.0 | 0.00 | 0.36 | 0.00 | 96 | 1010.3 |
| 20260510060003 | 53 | 35 | 0.0 | 1.0 | 0.00 | 0.36 | 0.00 | 96 | 1010.4 |
| 20260510055959 | 53 | 35 | 0.0 | 1.0 | 0.00 | 0.36 | 0.00 | 96 | 1010.3 |
| 20260510055613 | 53 | 35 | 0.0 | 0.0 | 0.00 | 0.36 | 0.00 | 96 | 1010.4 |
| 20260510054457 | 53 | 35 | 0.0 | 1.0 | 0.00 | 0.36 | 0.00 | 96 | 1010.4 |
| 20260510053957 | 53 | 35 | 0.0 | 1.0 | 0.00 | 0.36 | 0.00 | 96 | 1010.3 |
| 20260510053456 | 53 | 35 | 0.0 | 0.0 | 0.00 | 0.36 | 0.00 | 96 | 1010.3 |
| 20260510052958 | 53 | 35 | 0.0 | 1.0 | 0.00 | 0.36 | 0.00 | 96 | 1010.5 |
| 20260510052457 | 53 | 35 | 0.0 | 1.0 | 0.00 | 0.36 | 0.00 | 96 | 1010.5 |
| 20260510052001 | 53 | 35 | 0.0 | 1.0 | 0.00 | 0.36 | 0.00 | 96 | 1010.6 |
| 20260510051957 | 53 | 35 | 0.0 | 1.0 | 0.00 | 0.36 | 0.00 | 96 | 1010.5 |
| 20260510050955 | 53 | 35 | 0.0 | 1.0 | 0.00 | 0.36 | 0.00 | 96 | 1010.7 |
| 20260510050455 | 53 | 35 | 0.0 | 1.0 | 0.00 | 0.36 | 0.00 | 96 | 1010.7 |
| 20260510045957 | 52 | 35 | 0.0 | 1.0 | 0.00 | 0.36 | 0.00 | 96 | 1010.6 |
| 20260510045455 | 52 | 35 | 0.0 | 1.0 | 0.00 | 0.36 | 0.00 | 96 | 1010.5 |
| 20260510045001 | 52 | 35 | 0.0 | 1.0 | 0.00 | 0.36 | 0.00 | 96 | 1010.5 |
| 20260510044954 | 52 | 35 | 0.0 | 1.0 | 0.00 | 0.36 | 0.00 | 96 | 1010.4 |
| 20260510044001 | 52 | 35 | 0.0 | 1.0 | 0.00 | 0.36 | 0.00 | 96 | 1010.5 |
| 20260510043955 | 52 | 35 | 0.0 | 0.0 | 0.00 | 0.36 | 0.00 | 96 | 1010.4 |
| 20260510043611 | 52 | 35 | 0.0 | 1.0 | 0.00 | 0.36 | 0.00 | 96 | 1010.4 |
| 20260510042501 | 52 | 35 | 0.0 | 1.0 | 0.00 | 0.36 | 0.00 | 96 | 1010.5 |
| 20260510042456 | 52 | 35 | 0.0 | 1.0 | 0.00 | 0.36 | 0.00 | 96 | 1010.5 |
| 20260510042112 | 52 | 35 | 0.0 | 1.0 | 0.00 | 0.36 | 0.00 | 96 | 1010.6 |
| 20260510041455 | 52 | 35 | 0.0 | 1.0 | 0.00 | 0.36 | 0.00 | 96 | 1010.5 |
| 20260510040454 | 52 | 35 | 0.0 | 1.0 | 0.00 | 0.36 | 0.00 | 96 | 1010.7 |
| 20260510035953 | 52 | 35 | 0.0 | 1.0 | 0.01 | 0.36 | 0.36 | 96 | 1010.7 |
| 20260510035453 | 52 | 35 | 0.0 | 0.0 | 0.01 | 0.36 | 0.36 | 96 | 1010.6 |
| 20260510034952 | 52 | 35 | 0.0 | 0.0 | 0.01 | 0.36 | 0.36 | 96 | 1010.7 |
| 20260510034457 | 52 | 35 | 0.0 | 0.0 | 0.01 | 0.36 | 0.36 | 96 | 1010.7 |
| 20260510034453 | 52 | 35 | 0.0 | 0.0 | 0.01 | 0.36 | 0.36 | 96 | 1010.6 |
| 20260510033453 | 52 | 35 | 0.0 | 0.0 | 0.01 | 0.36 | 0.36 | 96 | 1010.8 |
| 20260510032953 | 52 | 35 | 0.0 | 0.0 | 0.01 | 0.36 | 0.36 | 96 | 1010.8 |
| 20260510032452 | 52 | 35 | 0.0 | 0.0 | 0.02 | 0.36 | 0.36 | 96 | 1010.8 |
| 20260510031951 | 52 | 35 | 0.0 | 0.0 | 0.02 | 0.36 | 0.36 | 95 | 1010.9 |
| 20260510031458 | 52 | 35 | 0.0 | 1.0 | 0.02 | 0.36 | 0.36 | 95 | 1011.0 |
| 20260510031452 | 52 | 35 | 0.0 | 1.0 | 0.02 | 0.36 | 0.36 | 95 | 1010.9 |
| 20260510030453 | 52 | 35 | 0.0 | 2.0 | 0.02 | 0.36 | 0.36 | 95 | 1011.1 |
| 20260510025951 | 52 | 35 | 1.0 | 2.0 | 0.01 | 0.35 | 0.35 | 95 | 1011.1 |
| 20260510025454 | 52 | 35 | 0.0 | 2.0 | 0.01 | 0.35 | 0.35 | 95 | 1011.1 |
| 20260510024952 | 52 | 35 | 0.0 | 2.0 | 0.01 | 0.35 | 0.35 | 95 | 1011.4 |
| 20260510024452 | 52 | 35 | 0.0 | 2.0 | 0.01 | 0.35 | 0.35 | 95 | 1011.5 |
| 20260510023949 | 52 | 32 | 0.0 | 1.0 | 0.01 | 0.35 | 0.35 | 95 | 1011.7 |
| 20260510023455 | 53 | 32 | 0.0 | 1.0 | 0.01 | 0.35 | 0.35 | 95 | 1011.8 |
| 20260510023449 | 53 | 32 | 0.0 | 1.0 | 0.01 | 0.35 | 0.35 | 95 | 1011.7 |
| 20260510022450 | 53 | 32 | 0.0 | 3.0 | 0.00 | 0.34 | 0.34 | 95 | 1011.8 |
| 20260510021950 | 53 | 32 | 0.0 | 3.0 | 0.00 | 0.34 | 0.34 | 95 | 1011.9 |
| 20260510021456 | 53 | 32 | 0.0 | 1.0 | 0.00 | 0.34 | 0.34 | 95 | 1012.0 |
| 20260510021451 | 53 | 32 | 0.0 | 1.0 | 0.00 | 0.34 | 0.34 | 95 | 1012.1 |
| 20260510020450 | 53 | 32 | 0.0 | 1.0 | 0.00 | 0.34 | 0.34 | 95 | 1011.9 |
| 20260510015949 | 53 | 32 | 0.0 | 1.0 | 0.00 | 0.34 | 0.34 | 95 | 1012.0 |
| 20260510015455 | 53 | 32 | 0.0 | 1.0 | 0.00 | 0.34 | 0.34 | 95 | 1012.0 |
| 20260510015449 | 53 | 32 | 0.0 | 1.0 | 0.00 | 0.34 | 0.34 | 95 | 1012.0 |
| 20260510015107 | 53 | 32 | 0.0 | 1.0 | 0.00 | 0.34 | 0.34 | 95 | 1012.2 |
| 20260510013951 | 53 | 32 | 0.0 | 1.0 | 0.00 | 0.34 | 0.34 | 95 | 1012.2 |
| 20260510013456 | 53 | 32 | 0.0 | 1.0 | 0.00 | 0.34 | 0.34 | 95 | 1012.2 |
| 20260510013449 | 53 | 32 | 0.0 | 1.0 | 0.00 | 0.34 | 0.34 | 95 | 1012.2 |
| 20260510013105 | 53 | 32 | 0.0 | 2.0 | 0.00 | 0.34 | 0.34 | 95 | 1012.3 |
| 20260510011951 | 53 | 32 | 0.0 | 2.0 | 0.00 | 0.34 | 0.34 | 95 | 1012.3 |
| 20260510011451 | 53 | 32 | 0.0 | 2.0 | 0.00 | 0.34 | 0.34 | 95 | 1012.3 |
| 20260510010951 | 54 | 32 | 0.0 | 1.0 | 0.00 | 0.34 | 0.34 | 95 | 1012.3 |
| 20260510010451 | 54 | 32 | 0.0 | 2.0 | 0.00 | 0.34 | 0.34 | 95 | 1012.4 |
| 20260510005949 | 54 | 32 | 0.0 | 2.0 | 0.00 | 0.34 | 0.34 | 95 | 1012.4 |
| 20260510005451 | 54 | 49 | 0.0 | 1.0 | 0.00 | 0.34 | 0.34 | 95 | 1012.4 |
| 20260510004950 | 54 | 49 | 0.0 | 1.0 | 0.00 | 0.34 | 0.34 | 95 | 1012.4 |
| 20260510004449 | 54 | 49 | 0.0 | 2.0 | 0.00 | 0.34 | 0.34 | 95 | 1012.3 |
| 20260510003950 | 54 | 49 | 0.0 | 2.0 | 0.00 | 0.34 | 0.34 | 95 | 1012.3 |
| 20260510003452 | 54 | 49 | 0.0 | 2.0 | 0.01 | 0.34 | 0.34 | 95 | 1012.3 |
| 20260510003447 | 54 | 49 | 0.0 | 2.0 | 0.00 | 0.34 | 0.34 | 95 | 1012.3 |
| 20260510002447 | 55 | 49 | 0.0 | 3.0 | 0.01 | 0.34 | 0.34 | 95 | 1012.2 |
| 20260510001951 | 55 | 48 | 0.0 | 2.0 | 0.01 | 0.34 | 0.34 | 95 | 1012.2 |
| 20260510001946 | 55 | 49 | 0.0 | 3.0 | 0.01 | 0.34 | 0.34 | 95 | 1012.2 |
| 20260510000946 | 55 | 49 | 1.0 | 2.0 | 0.01 | 0.34 | 0.34 | 95 | 1012.2 |
| 20260510000448 | 55 | 49 | 1.0 | 2.0 | 0.01 | 0.34 | 0.34 | 95 | 1012.2 |
| 20260509235951 | 55 | 48 | 0.0 | 2.0 | 0.02 | 0.34 | 0.34 | 95 | 1012.2 |
| 20260509235945 | 55 | 48 | 0.0 | 2.0 | 0.01 | 0.34 | 0.34 | 95 | 1012.2 |
| 20260509234944 | 55 | 48 | 0.0 | 2.0 | 0.02 | 0.34 | 0.34 | 95 | 1012.3 |
| 20260509234443 | 55 | 48 | 1.0 | 2.0 | 0.03 | 0.34 | 0.34 | 95 | 1012.1 |
| 20260509233943 | 55 | 44 | 0.0 | 2.0 | 0.04 | 0.34 | 0.34 | 95 | 1012.2 |
| 20260509233444 | 55 | 44 | 0.0 | 2.0 | 0.06 | 0.34 | 0.34 | 94 | 1012.1 |
| 20260509232945 | 55 | 44 | 0.0 | 1.0 | 0.10 | 0.33 | 0.33 | 94 | 1012.0 |
| 20260509232443 | 55 | 44 | 0.0 | 2.0 | 0.12 | 0.33 | 0.33 | 94 | 1012.1 |
| 20260509231944 | 55 | 44 | 1.0 | 3.0 | 0.14 | 0.33 | 0.33 | 94 | 1012.1 |
| 20260509231443 | 55 | 44 | 1.0 | 3.0 | 0.16 | 0.33 | 0.33 | 94 | 1012.0 |
| 20260509230943 | 55 | 72 | 0.0 | 2.0 | 0.17 | 0.33 | 0.33 | 94 | 1012.0 |
| 20260509230443 | 55 | 72 | 0.0 | 1.0 | 0.18 | 0.33 | 0.33 | 94 | 1012.1 |
| 20260509225944 | 55 | 72 | 0.0 | 2.0 | 0.19 | 0.33 | 0.33 | 94 | 1012.1 |
| 20260509225444 | 55 | 72 | 1.0 | 4.0 | 0.19 | 0.32 | 0.32 | 94 | 1012.0 |
| 20260509224943 | 55 | 72 | 1.0 | 4.0 | 0.20 | 0.32 | 0.32 | 94 | 1011.9 |
| 20260509224441 | 56 | 66 | 1.0 | 4.0 | 0.20 | 0.31 | 0.31 | 94 | 1011.9 |
| 20260509223941 | 56 | 59 | 1.0 | 4.0 | 0.20 | 0.30 | 0.31 | 94 | 1011.9 |
| 20260509223443 | 56 | 40 | 1.0 | 4.0 | 0.18 | 0.28 | 0.28 | 94 | 1011.9 |
| 20260509222942 | 56 | 348 | 1.0 | 4.0 | 0.13 | 0.23 | 0.23 | 93 | 1011.9 |
| 20260509222441 | 56 | 34 | 1.0 | 3.0 | 0.11 | 0.21 | 0.21 | 93 | 1011.7 |
| 20260509221943 | 56 | 34 | 0.0 | 3.0 | 0.10 | 0.19 | 0.19 | 93 | 1011.6 |
| 20260509221442 | 56 | 34 | 0.0 | 1.0 | 0.08 | 0.17 | 0.18 | 93 | 1011.5 |
| 20260509220942 | 56 | 34 | 1.0 | 4.0 | 0.07 | 0.16 | 0.17 | 93 | 1011.6 |
| 20260509220442 | 56 | 34 | 1.0 | 4.0 | 0.07 | 0.15 | 0.15 | 93 | 1011.6 |
| 20260509215939 | 56 | 33 | 1.0 | 3.0 | 0.08 | 0.14 | 0.14 | 92 | 1011.5 |
| 20260509215444 | 56 | 33 | 1.0 | 3.0 | 0.08 | 0.12 | 0.12 | 92 | 1011.5 |
| 20260509215438 | 56 | 33 | 1.0 | 3.0 | 0.08 | 0.13 | 0.13 | 92 | 1011.4 |
| 20260509214440 | 56 | 33 | 1.0 | 3.0 | 0.07 | 0.11 | 0.11 | 92 | 1011.5 |
| 20260509213939 | 56 | 31 | 1.0 | 4.0 | 0.06 | 0.10 | 0.10 | 91 | 1011.5 |
| 20260509213437 | 57 | 17 | 1.0 | 4.0 | 0.06 | 0.10 | 0.10 | 92 | 1011.5 |
| 20260509212937 | 57 | 134 | 1.0 | 4.0 | 0.06 | 0.10 | 0.10 | 91 | 1011.4 |
| 20260509212439 | 57 | 44 | 1.0 | 5.0 | 0.05 | 0.09 | 0.09 | 91 | 1011.4 |
| 20260509212434 | 57 | 355 | 1.0 | 4.0 | 0.06 | 0.10 | 0.10 | 91 | 1011.4 |
| 20260509211436 | 57 | 39 | 1.0 | 5.0 | 0.05 | 0.09 | 0.09 | 90 | 1011.2 |
| 20260509210938 | 58 | 146 | 2.0 | 5.0 | 0.02 | 0.06 | 0.06 | 86 | 1010.9 |
| 20260509210933 | 57 | 74 | 2.0 | 5.0 | 0.05 | 0.09 | 0.09 | 89 | 1011.1 |
| 20260509210434 | 58 | 127 | 2.0 | 5.0 | 0.04 | 0.08 | 0.09 | 87 | 1011.1 |
| 20260509205440 | 59 | 159 | 2.0 | 12.0 | 0.00 | 0.04 | 0.04 | 83 | 1010.7 |
| 20260509205435 | 58 | 86 | 2.0 | 7.0 | 0.01 | 0.05 | 0.05 | 84 | 1010.8 |
| 20260509204431 | 59 | 82 | 2.0 | 12.0 | 0.00 | 0.04 | 0.04 | 82 | 1010.6 |
| 20260509203930 | 60 | 34 | 2.0 | 5.0 | 0.00 | 0.04 | 0.04 | 83 | 1011.1 |
| 20260509203428 | 60 | 140 | 2.0 | 10.0 | 0.00 | 0.04 | 0.04 | 83 | 1011.2 |
| 20260509202928 | 60 | 17 | 1.0 | 10.0 | 0.00 | 0.04 | 0.04 | 82 | 1011.0 |
| 20260509202430 | 61 | 195 | 1.0 | 5.0 | 0.00 | 0.04 | 0.04 | 80 | 1011.0 |
| 20260509201927 | 62 | 128 | 1.0 | 5.0 | 0.00 | 0.04 | 0.04 | 78 | 1010.9 |
| 20260509201428 | 62 | 67 | 1.0 | 3.0 | 0.00 | 0.04 | 0.04 | 75 | 1010.9 |
| 20260509200927 | 62 | 48 | 2.0 | 8.0 | 0.00 | 0.04 | 0.04 | 73 | 1010.9 |
| 20260509200429 | 62 | 242 | 2.0 | 8.0 | 0.00 | 0.04 | 0.04 | 73 | 1010.8 |
| 20260509195926 | 62 | 24 | 2.0 | 7.0 | 0.00 | 0.04 | 0.04 | 72 | 1010.8 |
| 20260509195428 | 62 | 114 | 2.0 | 5.0 | 0.00 | 0.04 | 0.04 | 72 | 1010.9 |
| 20260509194926 | 62 | 202 | 1.0 | 7.0 | 0.00 | 0.04 | 0.04 | 72 | 1011.0 |
| 20260509194427 | 62 | 289 | 2.0 | 7.0 | 0.00 | 0.04 | 0.04 | 72 | 1010.9 |
| 20260509193922 | 62 | 34 | 2.0 | 10.0 | 0.00 | 0.04 | 0.04 | 71 | 1010.9 |
| 20260509193423 | 63 | 185 | 2.0 | 10.0 | 0.00 | 0.04 | 0.04 | 71 | 1010.9 |
| 20260509192925 | 63 | 275 | 2.0 | 9.0 | 0.00 | 0.04 | 0.04 | 72 | 1010.9 |
| 20260509192423 | 63 | 67 | 2.0 | 9.0 | 0.00 | 0.04 | 0.04 | 73 | 1011.0 |
| 20260509191922 | 63 | 45 | 1.0 | 6.0 | 0.00 | 0.04 | 0.04 | 73 | 1010.9 |
| 20260509191427 | 63 | 86 | 2.0 | 8.0 | 0.00 | 0.04 | 0.04 | 73 | 1010.9 |
| 20260509191423 | 63 | 9 | 1.0 | 6.0 | 0.00 | 0.04 | 0.04 | 73 | 1010.9 |
| 20260509190422 | 63 | 0 | 2.0 | 8.0 | 0.00 | 0.04 | 0.04 | 72 | 1011.0 |
| 20260509185922 | 63 | 37 | 2.0 | 8.0 | 0.00 | 0.04 | 0.04 | 73 | 1011.1 |
| 20260509185422 | 63 | 116 | 1.0 | 4.0 | 0.00 | 0.04 | 0.04 | 73 | 1011.1 |
| 20260509184927 | 63 | 30 | 1.0 | 5.0 | 0.00 | 0.04 | 0.04 | 74 | 1011.2 |
| 20260509184922 | 63 | 59 | 1.0 | 5.0 | 0.00 | 0.04 | 0.04 | 74 | 1011.1 |
| 20260509183922 | 63 | 321 | 2.0 | 5.0 | 0.00 | 0.04 | 0.04 | 73 | 1011.3 |
| 20260509183422 | 63 | 355 | 2.0 | 9.0 | 0.00 | 0.04 | 0.04 | 74 | 1011.2 |
| 20260509182929 | 62 | 71 | 1.0 | 5.0 | 0.00 | 0.04 | 0.04 | 77 | 1011.2 |
| 20260509182924 | 62 | 69 | 2.0 | 9.0 | 0.00 | 0.04 | 0.04 | 75 | 1011.1 |
| 20260509181922 | 61 | 107 | 1.0 | 4.0 | 0.00 | 0.04 | 0.04 | 79 | 1011.3 |
| 20260509181421 | 60 | 36 | 1.0 | 3.0 | 0.00 | 0.04 | 0.04 | 81 | 1011.4 |
| 20260509180922 | 59 | 62 | 1.0 | 3.0 | 0.00 | 0.04 | 0.04 | 81 | 1011.4 |
| 20260509180421 | 59 | 61 | 1.0 | 3.0 | 0.00 | 0.04 | 0.04 | 81 | 1011.2 |
| 20260509175920 | 59 | 13 | 1.0 | 3.0 | 0.00 | 0.04 | 0.04 | 82 | 1011.4 |
| 20260509175424 | 59 | 100 | 1.0 | 7.0 | 0.00 | 0.04 | 0.04 | 82 | 1011.9 |
| 20260509175419 | 59 | 11 | 1.0 | 7.0 | 0.00 | 0.04 | 0.04 | 81 | 1011.4 |
| 20260509174419 | 59 | 335 | 1.0 | 3.0 | 0.00 | 0.04 | 0.04 | 82 | 1012.3 |
| 20260509173918 | 59 | 9 | 1.0 | 3.0 | 0.00 | 0.04 | 0.04 | 81 | 1012.2 |
| 20260509173424 | 60 | 9 | 1.0 | 9.0 | 0.00 | 0.04 | 0.04 | 79 | 1011.9 |
| 20260509173418 | 59 | 9 | 1.0 | 3.0 | 0.00 | 0.04 | 0.04 | 79 | 1012.0 |
| 20260509172418 | 60 | 355 | 1.0 | 9.0 | 0.00 | 0.04 | 0.04 | 76 | 1012.0 |
| 20260509171917 | 61 | 54 | 1.0 | 2.0 | 0.00 | 0.04 | 0.04 | 75 | 1012.2 |
| 20260509171419 | 61 | 54 | 1.0 | 3.0 | 0.00 | 0.04 | 0.04 | 74 | 1012.1 |
| 20260509170919 | 62 | 53 | 1.0 | 3.0 | 0.00 | 0.04 | 0.04 | 72 | 1011.9 |
| 20260509170419 | 62 | 93 | 1.0 | 3.0 | 0.00 | 0.04 | 0.04 | 71 | 1011.8 |
| 20260509165917 | 62 | 59 | 1.0 | 3.0 | 0.00 | 0.04 | 0.04 | 71 | 1011.8 |
| 20260509165418 | 62 | 355 | 1.0 | 5.0 | 0.00 | 0.04 | 0.04 | 72 | 1011.9 |
| 20260509164916 | 62 | 0 | 1.0 | 5.0 | 0.00 | 0.04 | 0.04 | 71 | 1011.9 |
| 20260509164416 | 61 | 0 | 1.0 | 6.0 | 0.00 | 0.04 | 0.04 | 72 | 1012.0 |
| 20260509163917 | 61 | 0 | 1.0 | 6.0 | 0.00 | 0.04 | 0.04 | 72 | 1011.9 |
| 20260509163417 | 62 | 0 | 1.0 | 3.0 | 0.00 | 0.04 | 0.04 | 71 | 1012.0 |
| 20260509162915 | 62 | 0 | 1.0 | 3.0 | 0.00 | 0.04 | 0.04 | 72 | 1011.9 |
| 20260509162415 | 62 | 0 | 2.0 | 4.0 | 0.00 | 0.04 | 0.04 | 73 | 1011.9 |
| 20260509161919 | 61 | 262 | 1.0 | 3.0 | 0.00 | 0.04 | 0.04 | 74 | 1012.0 |
| 20260509161915 | 62 | 0 | 1.0 | 4.0 | 0.00 | 0.04 | 0.04 | 73 | 1011.9 |
| 20260509160916 | 61 | 0 | 1.0 | 8.0 | 0.00 | 0.04 | 0.04 | 75 | 1012.1 |
| 20260509160415 | 60 | 0 | 1.0 | 8.0 | 0.00 | 0.04 | 0.04 | 76 | 1012.2 |
| 20260509155916 | 60 | 0 | 1.0 | 4.0 | 0.00 | 0.04 | 0.04 | 77 | 1012.5 |
| 20260509155419 | 59 | 122 | 1.0 | 5.0 | 0.00 | 0.04 | 0.04 | 76 | 1012.5 |
| 20260509155414 | 60 | 0 | 1.0 | 5.0 | 0.00 | 0.04 | 0.04 | 77 | 1012.4 |
| 20260509154414 | 59 | 98 | 2.0 | 3.0 | 0.00 | 0.04 | 0.04 | 78 | 1012.5 |
| 20260509153919 | 59 | 92 | 2.0 | 6.0 | 0.00 | 0.04 | 0.04 | 77 | 1012.7 |
| 20260509153914 | 59 | 105 | 2.0 | 4.0 | 0.00 | 0.04 | 0.04 | 77 | 1012.7 |
| 20260509153531 | 59 | 0 | 2.0 | 6.0 | 0.00 | 0.04 | 0.04 | 78 | 1012.7 |
| 20260509152413 | 58 | 0 | 2.0 | 9.0 | 0.00 | 0.04 | 0.04 | 80 | 1012.7 |
| 20260509151912 | 58 | 0 | 2.0 | 9.0 | 0.00 | 0.04 | 0.04 | 81 | 1012.8 |
| 20260509151413 | 57 | 101 | 1.0 | 3.0 | 0.00 | 0.04 | 0.04 | 83 | 1012.8 |
| 20260509150913 | 56 | 0 | 1.0 | 3.0 | 0.00 | 0.04 | 0.04 | 84 | 1012.8 |
| 20260509150412 | 56 | 0 | 2.0 | 5.0 | 0.00 | 0.04 | 0.04 | 84 | 1012.8 |
| 20260509145913 | 56 | 0 | 2.0 | 5.0 | 0.00 | 0.04 | 0.04 | 84 | 1012.7 |
| 20260509145413 | 55 | 0 | 2.0 | 5.0 | 0.00 | 0.04 | 0.04 | 85 | 1012.7 |
| 20260509144417 | 54 | 0 | 2.0 | 5.0 | 0.00 | 0.04 | 0.04 | 88 | 1012.9 |
| 20260509144413 | 55 | 0 | 2.0 | 5.0 | 0.00 | 0.04 | 0.04 | 87 | 1012.8 |
| 20260509143418 | 53 | 0 | 2.0 | 3.0 | 0.00 | 0.04 | 0.04 | 90 | 1013.1 |
| 20260509143412 | 54 | 0 | 2.0 | 4.0 | 0.00 | 0.04 | 0.04 | 89 | 1013.0 |
| 20260509143031 | 53 | 0 | 2.0 | 3.0 | 0.00 | 0.04 | 0.04 | 91 | 1013.1 |
| 20260509141913 | 53 | 0 | 2.0 | 6.0 | 0.00 | 0.04 | 0.04 | 92 | 1013.3 |
| 20260509141413 | 52 | 96 | 2.0 | 6.0 | 0.00 | 0.04 | 0.04 | 92 | 1013.4 |
| 20260509140914 | 52 | 0 | 2.0 | 3.0 | 0.00 | 0.04 | 0.04 | 93 | 1013.3 |
| 20260509140411 | 51 | 115 | 2.0 | 3.0 | 0.00 | 0.04 | 0.04 | 93 | 1013.3 |
| 20260509135910 | 51 | 119 | 1.0 | 2.0 | 0.00 | 0.04 | 0.04 | 93 | 1013.5 |
| 20260509135412 | 51 | 119 | 1.0 | 2.0 | 0.01 | 0.04 | 0.04 | 94 | 1013.7 |
| 20260509134911 | 51 | 119 | 0.0 | 2.0 | 0.01 | 0.04 | 0.04 | 94 | 1013.8 |
| 20260509134409 | 51 | 119 | 0.0 | 3.0 | 0.01 | 0.04 | 0.04 | 94 | 1013.8 |
| 20260509133908 | 50 | 119 | 0.0 | 3.0 | 0.01 | 0.04 | 0.04 | 94 | 1013.8 |
| 20260509133410 | 50 | 261 | 0.0 | 1.0 | 0.01 | 0.04 | 0.04 | 94 | 1013.8 |
| 20260509132913 | 49 | 257 | 0.0 | 2.0 | 0.01 | 0.04 | 0.04 | 94 | 1013.9 |
| 20260509132909 | 50 | 0 | 0.0 | 2.0 | 0.01 | 0.04 | 0.04 | 94 | 1013.8 |
| 20260509131908 | 49 | 0 | 0.0 | 2.0 | 0.01 | 0.04 | 0.04 | 94 | 1013.9 |
| 20260509131404 | 48 | 0 | 0.0 | 3.0 | 0.01 | 0.04 | 0.04 | 94 | 1013.9 |
| 20260509130904 | 48 | 0 | 0.0 | 3.0 | 0.01 | 0.04 | 0.04 | 94 | 1013.8 |
| 20260509130403 | 47 | 0 | 0.0 | 1.0 | 0.01 | 0.04 | 0.04 | 94 | 1013.8 |
| 20260509125909 | 46 | 260 | 0.0 | 1.0 | 0.01 | 0.04 | 0.04 | 93 | 1013.9 |
| 20260509125904 | 46 | 260 | 0.0 | 1.0 | 0.01 | 0.03 | 0.03 | 93 | 1014.0 |
| 20260509124903 | 46 | 260 | 0.0 | 1.0 | 0.01 | 0.03 | 0.03 | 93 | 1014.0 |
| 20260509124402 | 45 | 260 | 0.0 | 1.0 | 0.01 | 0.03 | 0.03 | 93 | 1014.0 |
| 20260509123908 | 45 | 260 | 0.0 | 2.0 | 0.02 | 0.03 | 0.03 | 92 | 1013.8 |
| 20260509123901 | 45 | 260 | 0.0 | 1.0 | 0.01 | 0.03 | 0.03 | 93 | 1013.9 |
| 20260509122910 | 45 | 259 | 0.0 | 2.0 | 0.02 | 0.03 | 0.03 | 92 | 1013.8 |
| 20260509122903 | 45 | 260 | 0.0 | 2.0 | 0.02 | 0.03 | 0.03 | 92 | 1013.7 |
| 20260509121901 | 45 | 259 | 0.0 | 2.0 | 0.03 | 0.03 | 0.03 | 92 | 1013.8 |
| 20260509121408 | 44 | 260 | 0.0 | 1.0 | 0.03 | 0.03 | 0.03 | 92 | 1013.9 |
| 20260509121403 | 44 | 260 | 0.0 | 1.0 | 0.03 | 0.03 | 0.03 | 92 | 1013.9 |
| 20260509120401 | 44 | 260 | 0.0 | 1.0 | 0.03 | 0.03 | 0.03 | 92 | 1014.0 |
| 20260509115902 | 44 | 260 | 0.0 | 1.0 | 0.03 | 0.03 | 0.03 | 92 | 1014.1 |
| 20260509115402 | 44 | 260 | 0.0 | 1.0 | 0.02 | 0.02 | 0.02 | 91 | 1014.2 |
| 20260509114903 | 44 | 260 | 0.0 | 1.0 | 0.02 | 0.02 | 0.02 | 91 | 1014.3 |
| 20260509114408 | 43 | 260 | 0.0 | 1.0 | 0.02 | 0.02 | 0.02 | 91 | 1014.6 |
| 20260509114403 | 44 | 260 | 0.0 | 1.0 | 0.02 | 0.02 | 0.02 | 91 | 1014.4 |
| 20260509113402 | 43 | 260 | 0.0 | 1.0 | 0.01 | 0.01 | 0.01 | 91 | 1014.7 |
| 20260509112901 | 43 | 260 | 0.0 | 1.0 | 0.01 | 0.01 | 0.01 | 90 | 1014.8 |
| 20260509112403 | 43 | 260 | 0.0 | 1.0 | 0.01 | 0.01 | 0.01 | 90 | 1014.8 |
| 20260509111901 | 43 | 260 | 0.0 | 1.0 | 0.00 | 0.00 | 0.00 | 90 | 1014.7 |
| 20260509111359 | 43 | 260 | 0.0 | 0.0 | 0.00 | 0.00 | 0.00 | 90 | 1014.7 |
| 20260509110901 | 42 | 260 | 0.0 | 1.0 | 0.00 | 0.00 | 0.00 | 90 | 1014.6 |
| 20260509110359 | 42 | 260 | 0.0 | 1.0 | 0.00 | 0.00 | 0.00 | 90 | 1014.7 |
| 20260509105900 | 42 | 260 | 0.0 | 1.0 | 0.00 | 0.00 | 0.00 | 90 | 1014.6 |
| 20260509105358 | 42 | 260 | 0.0 | 1.0 | 0.00 | 0.00 | 0.00 | 90 | 1014.5 |
| 20260509104857 | 42 | 260 | 0.0 | 1.0 | 0.00 | 0.00 | 0.00 | 90 | 1014.4 |
| 20260509104357 | 42 | 260 | 0.0 | 1.0 | 0.00 | 0.00 | 0.00 | 90 | 1014.5 |
| 20260509103857 | 42 | 260 | 0.0 | 1.0 | 0.00 | 0.00 | 0.00 | 90 | 1014.4 |
| 20260509103358 | 42 | 260 | 0.0 | 0.0 | 0.00 | 0.00 | 0.00 | 90 | 1014.1 |
| 20260509102855 | 42 | 260 | 0.0 | 0.0 | 0.00 | 0.00 | 0.00 | 91 | 1014.1 |
| 20260509102355 | 41 | 260 | 0.0 | 0.0 | 0.00 | 0.00 | 0.00 | 90 | 1013.7 |
| 20260509101856 | 41 | 260 | 0.0 | 1.0 | 0.00 | 0.00 | 0.00 | 91 | 1013.7 |
| 20260509101356 | 41 | 260 | 0.0 | 1.0 | 0.00 | 0.00 | 0.00 | 91 | 1013.5 |
| 20260509100901 | 40 | 260 | 0.0 | 1.0 | 0.00 | 0.00 | 0.00 | 91 | 1013.5 |
| 20260509100856 | 41 | 260 | 0.0 | 1.0 | 0.00 | 0.00 | 0.00 | 90 | 1013.6 |
| 20260509095851 | 40 | 260 | 0.0 | 0.0 | 0.00 | 0.00 | 0.00 | 90 | 1013.3 |
| 20260509095352 | 40 | 260 | 0.0 | 1.0 | 0.00 | 0.00 | 0.00 | 90 | 1013.1 |
| 20260509094856 | 40 | 260 | 0.0 | 1.0 | 0.00 | 0.00 | 0.00 | 91 | 1013.1 |
| 20260509094851 | 40 | 260 | 0.0 | 1.0 | 0.00 | 0.00 | 0.00 | 90 | 1013.3 |
| 20260509093851 | 39 | 260 | 0.0 | 0.0 | 0.00 | 0.00 | 0.00 | 90 | 1012.9 |
| 20260509093351 | 39 | 260 | 0.0 | 0.0 | 0.00 | 0.00 | 0.00 | 90 | 1013.0 |
| 20260509092850 | 39 | 260 | 0.0 | 0.0 | 0.00 | 0.00 | 0.00 | 90 | 1013.0 |
| 20260509092350 | 38 | 260 | 0.0 | 0.0 | 0.00 | 0.00 | 0.00 | 90 | 1013.1 |
| 20260509091854 | 38 | 260 | 0.0 | 0.0 | 0.00 | 0.00 | 0.00 | 89 | 1013.1 |
| 20260509091848 | 38 | 260 | 0.0 | 0.0 | 0.00 | 0.00 | 0.00 | 90 | 1013.1 |
| 20260509090848 | 38 | 260 | 0.0 | 0.0 | 0.00 | 0.00 | 0.00 | 89 | 1013.1 |
| 20260509090348 | 38 | 260 | 0.0 | 0.0 | 0.00 | 0.00 | 0.00 | 89 | 1013.2 |
| 20260509085849 | 38 | 260 | 0.0 | 0.0 | 0.00 | 0.00 | 0.00 | 89 | 1013.1 |
| 20260509085352 | 39 | 260 | 0.0 | 0.0 | 0.00 | 0.00 | 0.00 | 89 | 1012.9 |
| 20260509085348 | 39 | 260 | 0.0 | 0.0 | 0.00 | 0.00 | 0.00 | 89 | 1012.9 |
| 20260509084348 | 39 | 260 | 0.0 | 0.0 | 0.00 | 0.00 | 0.00 | 89 | 1012.8 |
| 20260509083848 | 39 | 260 | 0.0 | 0.0 | 0.00 | 0.00 | 0.00 | 88 | 1012.8 |
| 20260509083349 | 39 | 260 | 0.0 | 0.0 | 0.00 | 0.00 | 0.00 | 88 | 1012.9 |
| 20260509082852 | 39 | 260 | 0.0 | 0.0 | 0.00 | 0.00 | 0.00 | 88 | 1013.2 |
| 20260509082845 | 39 | 260 | 0.0 | 0.0 | 0.00 | 0.00 | 0.00 | 88 | 1013.1 |
| 20260509082346 | 39 | 260 | 0.0 | 0.0 | 0.00 | 0.00 | 0.00 | 88 | 1013.1 |
| 20260509081345 | 39 | 260 | 0.0 | 0.0 | 0.00 | 0.00 | 0.00 | 88 | 1013.3 |
| 20260509080846 | 39 | 260 | 0.0 | 0.0 | 0.00 | 0.00 | 0.00 | 88 | 1013.3 |
| 20260509080345 | 39 | 260 | 0.0 | 1.0 | 0.00 | 0.00 | 0.00 | 88 | 1013.2 |
| 20260509075845 | 39 | 260 | 0.0 | 1.0 | 0.00 | 0.00 | 0.00 | 87 | 1013.3 |
| 20260509075344 | 39 | 260 | 0.0 | 0.0 | 0.00 | 0.00 | 0.00 | 87 | 1013.3 |
| 20260509074844 | 39 | 260 | 0.0 | 0.0 | 0.00 | 0.00 | 0.00 | 87 | 1013.2 |
| 20260509074344 | 39 | 260 | 0.0 | 0.0 | 0.00 | 0.00 | 0.00 | 86 | 1013.2 |
| 20260509073840 | 39 | 260 | 0.0 | 0.0 | 0.00 | 0.00 | 0.00 | 86 | 1013.3 |
| 20260509073346 | 39 | 260 | 0.0 | 1.0 | 0.00 | 0.00 | 0.00 | 87 | 1013.2 |
| 20260509073342 | 39 | 260 | 0.0 | 0.0 | 0.00 | 0.00 | 0.00 | 87 | 1013.2 |
| 20260509072341 | 39 | 260 | 0.0 | 1.0 | 0.00 | 0.00 | 0.00 | 86 | 1013.3 |
| 20260509071841 | 39 | 260 | 0.0 | 1.0 | 0.00 | 0.00 | 0.00 | 86 | 1013.4 |
| 20260509071341 | 39 | 260 | 0.0 | 0.0 | 0.00 | 0.00 | 0.00 | 86 | 1013.3 |
| 20260509070841 | 39 | 260 | 0.0 | 1.0 | 0.00 | 0.00 | 0.00 | 86 | 1013.1 |
| 20260509070342 | 40 | 260 | 0.0 | 1.0 | 0.00 | 0.00 | 0.00 | 86 | 1013.3 |
| 20260509065841 | 40 | 260 | 0.0 | 0.0 | 0.00 | 0.00 | 0.00 | 86 | 1013.3 |
| 20260509065342 | 40 | 260 | 0.0 | 1.0 | 0.00 | 0.00 | 0.00 | 86 | 1013.2 |